Location: Lafig�re
(44.4503°N, 4.0357°E)
Time: 06:25:26
(UTC+00:00)

Transit 2A Rocket - Pass Details

Date: 23 June 2021
Orbit: 590 x 913 km, 66.7° (Epoch: 26 July)

Event Time Altitude Azimuth Distance (km) Brightness Sun altitude
Exits shadow 22:50:12 46° 112° (ESE) 812 4.9 -20.9°
Drops below altitude 10° 22:54:21 10° 43° (NE) 1,982 7.6 -21.1°
Sets 22:56:44 0° 37° (NE) 2,928 8.6 -21.2°
